F3965 Weather Reports


Display with metric or nautical units.
time (UTC)temp
F
wind
direction
speed
MPH
gust
MPH
rain 1hr
in
rain 24hr
in
rain mn
in
humidity
%
barometer
mb
20260507043030 45 167 3.0 6.0 0.00 0.06 0.00 66 1013.8
20260507041534 46 173 1.0 5.0 0.00 0.06 0.00 66 1013.6
20260507040041 46 173 2.0 5.0 0.00 0.06 0.00 66 1013.7
20260507034540 46 173 1.0 5.0 0.00 0.06 0.00 66 1013.7
20260507033043 46 180 2.0 4.0 0.00 0.06 0.00 66 1013.9
20260507031545 46 194 1.0 4.0 0.00 0.06 0.00 66 1013.9
20260507030033 46 200 0.0 3.0 0.00 0.06 0.00 66 1013.8
20260507024534 46 200 1.0 3.0 0.00 0.07 0.00 65 1013.9
20260507023034 47 201 0.0 3.0 0.00 0.07 0.00 65 1014.0
20260507021533 47 201 1.0 4.0 0.00 0.07 0.00 65 1014.1
20260507020034 47 204 1.0 3.0 0.00 0.07 0.00 65 1014.1
20260507014541 47 205 1.0 3.0 0.00 0.07 0.00 65 1014.0
20260507013038 47 205 0.0 4.0 0.00 0.07 0.00 65 1014.2
20260507011536 47 205 1.0 4.0 0.00 0.07 0.00 64 1014.2
20260507010040 48 206 2.0 4.0 0.00 0.07 0.00 64 1014.4
20260507004532 48 211 1.0 4.0 0.00 0.07 0.00 64 1014.4
20260507003031 48 0 1.0 3.0 0.00 0.07 0.00 63 1014.4
20260507001534 48 210 1.0 3.0 0.00 0.07 0.00 63 1014.5
20260507000035 49 210 1.0 4.0 0.00 0.07 0.00 62 1014.6
20260506234530 49 0 0.0 4.0 0.00 0.07 0.00 61 1014.7
20260506233030 49 213 1.0 3.0 0.00 0.07 0.00 61 1014.7
20260506231534 49 213 1.0 3.0 0.00 0.07 0.00 61 1014.9
20260506230035 50 0 1.0 3.0 0.00 0.07 0.00 60 1014.7
20260506224531 50 214 1.0 3.0 0.00 0.07 0.00 60 1014.7
20260506223032 50 214 0.0 3.0 0.00 0.07 0.00 59 1014.9
20260506221532 50 0 1.0 2.0 0.00 0.07 0.00 58 1014.8
20260506220032 50 214 2.0 5.0 0.00 0.07 0.00 58 1015.0
20260506214535 51 219 2.0 4.0 0.00 0.07 0.07 58 1014.9
20260506213032 51 220 0.0 2.0 0.00 0.07 0.07 58 1015.1
20260506211530 51 0 0.0 5.0 0.00 0.07 0.07 58 1015.1
20260506210034 52 186 1.0 3.0 0.00 0.07 0.07 58 1015.0
20260506204530 52 186 1.0 3.0 0.00 0.07 0.07 58 1014.9
20260506203038 53 0 0.0 3.0 0.00 0.07 0.07 58 1014.8
20260506201537 53 186 1.0 3.0 0.00 0.07 0.07 57 1014.7
20260506200037 53 186 0.0 2.0 0.00 0.07 0.07 58 1014.5
20260506194531 54 186 1.0 5.0 0.00 0.08 0.07 57 1014.5
20260506193030 55 186 1.0 3.0 0.00 0.08 0.07 57 1014.2
20260506191532 55 186 1.0 4.0 0.00 0.08 0.07 57 1014.1
20260506190038 56 0 0.0 0.0 0.00 0.08 0.07 57 1014.1
20260506184543 57 0 0.0 0.0 0.00 0.12 0.07 56 1013.9
20260506183033 57 186 1.0 4.0 0.00 0.12 0.07 55 1014.1
20260506181530 58 204 1.0 4.0 0.00 0.12 0.07 54 1014.0
20260506180030 59 209 0.0 5.0 0.00 0.12 0.07 54 1013.9
20260506174529 59 0 0.0 0.0 0.00 0.13 0.07 53 1014.0
20260506173040 58 0 0.0 5.0 0.00 0.13 0.07 53 1014.1
20260506171532 57 0 0.0 0.0 0.00 0.13 0.07 54 1014.2
20260506170036 56 0 1.0 5.0 0.00 0.13 0.07 54 1014.2
20260506164533 56 0 1.0 4.0 0.00 0.13 0.07 57 1014.2
20260506163036 55 263 1.0 3.0 0.00 0.13 0.07 57 1014.3
20260506161532 55 0 0.0 4.0 0.01 0.13 0.07 57 1014.5
20260506160032 55 0 0.0 0.0 0.02 0.13 0.07 57 1014.7
20260506154532 55 0 0.0 4.0 0.02 0.14 0.06 57 1014.7
20260506153030 55 275 4.0 8.0 0.03 0.14 0.06 57 1014.8
20260506151531 55 29 0.0 7.0 0.04 0.13 0.05 57 1014.8
20260506150030 55 5 2.0 10.0 0.03 0.12 0.04 58 1014.9
20260506144534 56 340 3.0 5.0 0.03 0.18 0.03 58 1015.0
20260506143033 57 29 4.0 9.0 0.00 0.15 0.01 56 1015.0
20260506141533 58 77 4.0 17.0 0.00 0.14 0.00 53 1015.1
20260506140032 59 49 9.0 22.0 0.00 0.14 0.00 51 1014.9
20260506134532 59 42 11.0 21.0 0.00 0.25 0.00 49 1014.9
20260506133032 59 28 10.0 21.0 0.00 0.25 0.00 50 1014.9
20260506131544 59 59 8.0 22.0 0.00 0.25 0.00 50 1014.7
20260506130037 59 30 11.0 24.0 0.00 0.25 0.00 51 1014.8
20260506124529 59 344 10.0 17.0 0.00 0.25 0.00 49 1014.7
20260506123031 59 30 9.0 18.0 0.00 0.25 0.00 50 1014.5
20260506121530 60 25 9.0 16.0 0.00 0.25 0.00 49 1014.5
20260506120033 60 28 5.0 17.0 0.00 0.25 0.00 46 1014.4
20260506114534 60 44 9.0 17.0 0.00 0.25 0.00 46 1014.4
20260506113030 59 22 9.0 17.0 0.00 0.25 0.00 49 1014.5
20260506111531 59 26 8.0 17.0 0.00 0.25 0.00 49 1014.6
20260506110033 59 5 10.0 15.0 0.00 0.25 0.00 49 1014.5
20260506104533 58 59 6.0 14.0 0.00 0.25 0.00 51 1014.6
20260506103045 59 31 5.0 11.0 0.00 0.25 0.00 46 1014.4
20260506101543 59 40 4.0 9.0 0.00 0.25 0.00 46 1014.3
20260506100052 59 24 8.0 13.0 0.00 0.25 0.00 47 1014.4
20260506094533 58 34 3.0 10.0 0.00 0.25 0.00 48 1014.5
20260506093039 58 36 6.0 11.0 0.00 0.25 0.00 48 1014.4
20260506091537 58 360 4.0 11.0 0.00 0.25 0.00 48 1014.2
20260506090034 58 28 3.0 14.0 0.00 0.25 0.00 47 1014.2
20260506084540 58 5 6.0 13.0 0.00 0.25 0.00 46 1014.1
20260506083033 58 24 9.0 18.0 0.00 0.25 0.00 47 1014.2
20260506081541 57 17 8.0 15.0 0.00 0.25 0.00 47 1014.1
20260506073043 53 271 5.0 10.0 0.00 0.25 0.00 53 1014.1
20260506071536 51 282 3.0 10.0 0.00 0.25 0.00 55 1014.0
20260506061535 50 215 0.0 2.0 0.00 0.25 0.00 64 1013.8
20260506044613 49 252 1.0 3.0 0.00 0.25 0.00 64 1013.4